IRIDIUM 14 [P]

Last updated on March 7, 2019, 3:10 a.m. UTC

1 25777U 99032A   19065.47845057  .02576324 -15203-5  79375-3 0  9992
2 25777  86.6552 321.5019 0395357 165.0342 196.3036 15.47793168 44711

Satellite is not in orbit.